| time (UTC) | temp C | wind direction | speed KPH | gust KPH | rain 1hr cm | rain 24hr cm | rain mn cm | humidity % | barometer mb |
| 20260506231525 | 12 | 139 | 3.2 | 9.7 | 0.00 | 0.03 | 0.03 | 66 | 1007.8 |
| 20260506230027 | 12 | 139 | 0.0 | 8.0 | 0.00 | 0.03 | 0.03 | 66 | 1007.7 |
| 20260506224523 | 12 | 139 | 0.0 | 8.0 | 0.00 | 0.03 | 0.03 | 66 | 1007.6 |
| 20260506223022 | 12 | 203 | 3.2 | 9.7 | 0.00 | 0.03 | 0.03 | 66 | 1007.5 |
| 20260506221521 | 12 | 139 | 3.2 | 9.7 | 0.00 | 0.03 | 0.03 | 66 | 1007.6 |
| 20260506220021 | 12 | 135 | 4.8 | 9.7 | 0.00 | 0.03 | 0.03 | 66 | 1007.6 |
| 20260506214519 | 12 | 139 | 6.4 | 12.9 | 0.00 | 0.03 | 0.03 | 66 | 1007.4 |
| 20260506213019 | 13 | 203 | 4.8 | 11.3 | 0.00 | 0.03 | 0.03 | 66 | 1007.1 |
| 20260506211517 | 13 | 139 | 4.8 | 12.9 | 0.00 | 0.03 | 0.03 | 67 | 1006.9 |
| 20260506210017 | 12 | 203 | 8.0 | 14.5 | 0.00 | 0.03 | 0.03 | 67 | 1006.8 |
| 20260506204515 | 12 | 203 | 8.0 | 14.5 | 0.00 | 0.03 | 0.03 | 66 | 1007.0 |
| 20260506203014 | 13 | 203 | 4.8 | 12.9 | 0.00 | 0.03 | 0.03 | 64 | 1007.1 |
| 20260506201512 | 18 | 203 | 6.4 | 12.9 | 0.00 | 0.03 | 0.03 | 63 | 1007.1 |
| 20260506200011 | 18 | 203 | 3.2 | 12.9 | 0.00 | 0.03 | 0.03 | 64 | 1007.3 |
| 20260506194603 | 17 | 203 | 8.0 | 17.7 | 0.00 | 0.03 | 0.03 | 75 | 1007.5 |
| 20260506193033 | 15 | 203 | 3.2 | 20.9 | 0.00 | 0.03 | 0.03 | 76 | 1007.7 |
| 20260506191528 | 13 | 131 | 1.6 | 11.3 | 0.00 | 0.03 | 0.03 | 68 | 1007.7 |
| 20260506190026 | 13 | 98 | 3.2 | 8.0 | 0.00 | 0.03 | 0.03 | 69 | 1007.7 |
| 20260506184526 | 13 | 123 | 4.8 | 12.9 | 0.00 | 0.03 | 0.03 | 69 | 1007.7 |
| 20260506183023 | 12 | 124 | 3.2 | 14.5 | 0.00 | 0.03 | 0.03 | 69 | 1007.8 |
| 20260506181521 | 12 | 136 | 4.8 | 14.5 | 0.03 | 0.03 | 0.03 | 69 | 1008.0 |
| 20260506180052 | 12 | 203 | 9.7 | 17.7 | 0.03 | 0.03 | 0.03 | 69 | 1008.1 |
| 20260506174557 | 12 | 203 | 8.0 | 16.1 | 0.03 | 0.03 | 0.03 | 68 | 1008.3 |
| 20260506173043 | 12 | 203 | 6.4 | 14.5 | 0.03 | 0.03 | 0.03 | 68 | 1008.5 |
| 20260506171541 | 12 | 131 | 6.4 | 11.3 | 0.00 | 0.00 | 0.00 | 67 | 1008.6 |
| 20260506170043 | 12 | 137 | 6.4 | 20.9 | 0.00 | 0.00 | 0.00 | 67 | 1008.9 |
| 20260506164537 | 12 | 203 | 3.2 | 14.5 | 0.00 | 0.00 | 0.00 | 66 | 1009.6 |
| 20260506163009 | 12 | 203 | 3.2 | 11.3 | 0.00 | 0.00 | 0.00 | 65 | 1009.7 |
| 20260506161506 | 13 | 203 | 4.8 | 17.7 | 0.00 | 0.00 | 0.00 | 64 | 1009.7 |
| 20260506160035 | 13 | 139 | 8.0 | 16.1 | 0.00 | 0.00 | 0.00 | 63 | 1009.6 |
| 20260506154536 | 14 | 203 | 4.8 | 12.9 | 0.00 | 0.00 | 0.00 | 63 | 1009.8 |
| 20260506153003 | 14 | 133 | 1.6 | 16.1 | 0.00 | 0.00 | 0.00 | 63 | 1009.7 |
| 20260506151502 | 14 | 203 | 4.8 | 16.1 | 0.00 | 0.00 | 0.00 | 63 | 1009.8 |
| 20260506150104 | 14 | 203 | 6.4 | 14.5 | 0.00 | 0.00 | 0.00 | 63 | 1009.8 |
| 20260506144612 | 13 | 123 | 4.8 | 19.3 | 0.00 | 0.00 | 0.00 | 63 | 1009.7 |
| 20260506143057 | 13 | 203 | 4.8 | 17.7 | 0.00 | 0.00 | 0.00 | 64 | 1009.7 |
| 20260506141552 | 12 | 203 | 8.0 | 20.9 | 0.00 | 0.00 | 0.00 | 65 | 1009.6 |
| 20260506140103 | 12 | 203 | 12.9 | 20.9 | 0.00 | 0.00 | 0.00 | 65 | 1009.6 |
| 20260506134546 | 12 | 203 | 11.3 | 19.3 | 0.00 | 0.00 | 0.00 | 65 | 1010.0 |
| 20260506133056 | 12 | 203 | 12.9 | 17.7 | 0.00 | 0.00 | 0.00 | 65 | 1010.0 |
| 20260506131546 | 12 | 203 | 8.0 | 16.1 | 0.00 | 0.00 | 0.00 | 64 | 1010.3 |
| 20260506130059 | 12 | 131 | 9.7 | 19.3 | 0.00 | 0.00 | 0.00 | 65 | 1010.1 |
| 20260506124535 | 11 | 203 | 9.7 | 14.5 | 0.00 | 0.00 | 0.00 | 65 | 1010.2 |
| 20260506123039 | 11 | 203 | 8.0 | 16.1 | 0.00 | 0.00 | 0.00 | 64 | 1010.2 |
| 20260506121532 | 12 | 134 | 8.0 | 16.1 | 0.00 | 0.00 | 0.00 | 63 | 1010.4 |
| 20260506120033 | 13 | 203 | 6.4 | 16.1 | 0.00 | 0.00 | 0.00 | 61 | 1010.3 |
| 20260506114530 | 18 | 203 | 8.0 | 20.9 | 0.00 | 0.00 | 0.00 | 58 | 1010.4 |
| 20260506113036 | 16 | 203 | 3.2 | 17.7 | 0.00 | 0.00 | 0.00 | 65 | 1010.6 |
| 20260506111532 | 12 | 203 | 1.6 | 14.5 | 0.00 | 0.00 | 0.00 | 67 | 1010.6 |
| 20260506110038 | 12 | 203 | 8.0 | 14.5 | 0.00 | 0.00 | 0.00 | 66 | 1010.5 |
| 20260506104528 | 12 | 203 | 1.6 | 12.9 | 0.00 | 0.00 | 0.00 | 67 | 1010.6 |
| 20260506103026 | 12 | 203 | 3.2 | 8.0 | 0.00 | 0.00 | 0.00 | 67 | 1010.4 |
| 20260506101532 | 11 | 139 | 4.8 | 11.3 | 0.00 | 0.00 | 0.00 | 67 | 1010.3 |
| 20260506100023 | 11 | 203 | 3.2 | 9.7 | 0.00 | 0.00 | 0.00 | 66 | 1010.2 |
| 20260506094525 | 12 | 203 | 6.4 | 11.3 | 0.00 | 0.00 | 0.00 | 66 | 1010.3 |
| 20260506093030 | 12 | 136 | 3.2 | 8.0 | 0.00 | 0.00 | 0.00 | 67 | 1010.2 |
| 20260506091520 | 12 | 203 | 3.2 | 9.7 | 0.00 | 0.00 | 0.00 | 66 | 1010.4 |
| 20260506090017 | 12 | 203 | 4.8 | 11.3 | 0.00 | 0.00 | 0.00 | 65 | 1010.4 |
| 20260506084517 | 12 | 122 | 4.8 | 12.9 | 0.00 | 0.00 | 0.00 | 65 | 1010.4 |
| 20260506083025 | 12 | 203 | 1.6 | 11.3 | 0.00 | 0.00 | 0.00 | 66 | 1010.6 |
| 20260506081517 | 12 | 203 | 3.2 | 11.3 | 0.00 | 0.00 | 0.00 | 66 | 1010.6 |
| 20260506073013 | 12 | 203 | 4.8 | 11.3 | 0.00 | 0.00 | 0.00 | 65 | 1010.6 |
| 20260506071512 | 12 | 203 | 6.4 | 14.5 | 0.00 | 0.00 | 0.00 | 65 | 1010.9 |
| 20260506061509 | 13 | 203 | 1.6 | 11.3 | 0.00 | 0.00 | 0.00 | 64 | 1010.8 |
| 20260506044501 | 13 | 203 | 3.2 | 11.3 | 0.00 | 0.00 | 0.00 | 64 | 1011.1 |
| 20260506043002 | 13 | 203 | 8.0 | 16.1 | 0.00 | 0.00 | 0.00 | 64 | 1011.1 |
| 20260506041502 | 13 | 123 | 8.0 | 12.9 | 0.00 | 0.00 | 0.00 | 63 | 1011.2 |
| 20260506040100 | 13 | 203 | 6.4 | 16.1 | 0.00 | 0.00 | 0.00 | 62 | 1011.2 |
| 20260506034530 | 15 | 134 | 6.4 | 16.1 | 0.00 | 0.00 | 0.00 | 59 | 1011.3 |
| 20260506033030 | 17 | 203 | 6.4 | 20.9 | 0.00 | 0.00 | 0.00 | 52 | 1011.2 |
| 20260506031541 | 20 | 203 | 3.2 | 17.7 | 0.00 | 0.00 | 0.00 | 52 | 1011.1 |
| 20260506030030 | 20 | 203 | 3.2 | 19.3 | 0.00 | 0.00 | 0.00 | 53 | 1011.0 |
| 20260506024532 | 20 | 203 | 3.2 | 24.1 | 0.00 | 0.00 | 0.00 | 52 | 1011.0 |
| 20260506023027 | 20 | 203 | 8.0 | 22.5 | 0.00 | 0.00 | 0.00 | 52 | 1011.0 |
| 20260506021523 | 20 | 203 | 8.0 | 32.2 | 0.00 | 0.00 | 0.00 | 51 | 1011.1 |
| 20260506020024 | 20 | 203 | 6.4 | 19.3 | 0.00 | 0.00 | 0.00 | 49 | 1011.0 |
| 20260506014523 | 20 | 203 | 6.4 | 24.1 | 0.00 | 0.00 | 0.00 | 49 | 1010.8 |
| 20260506013022 | 20 | 203 | 4.8 | 19.3 | 0.00 | 0.00 | 0.00 | 50 | 1010.7 |
| 20260506011518 | 16 | 203 | 3.2 | 14.5 | 0.00 | 0.00 | 0.00 | 57 | 1010.6 |
| 20260506010036 | 16 | 129 | 6.4 | 17.7 | 0.00 | 0.00 | 0.00 | 54 | 1010.4 |
| 20260506004512 | 17 | 137 | 4.8 | 11.3 | 0.00 | 0.00 | 0.00 | 55 | 1010.3 |
| 20260506003012 | 17 | 203 | 4.8 | 11.3 | 0.00 | 0.00 | 0.00 | 55 | 1010.3 |
| 20260506001509 | 16 | 133 | 3.2 | 12.9 | 0.00 | 0.00 | 0.00 | 60 | 1010.1 |
| 20260506000013 | 14 | 130 | 9.7 | 17.7 | 0.00 | 0.00 | 0.00 | 59 | 1010.0 |
| 20260505234509 | 17 | 203 | 8.0 | 12.9 | 0.00 | 0.00 | 0.00 | 54 | 1009.9 |
| 20260505233009 | 17 | 135 | 3.2 | 11.3 | 0.00 | 0.00 | 0.00 | 55 | 1009.6 |